Location: *
(2.5500°S, 65.9667°W)
Time: 05:41:28
(UTC+00:00)

Explorer 7 - Pass Details

Date: 20 April 2024
Orbit: 467 x 625 km, 50.3° (Epoch: 26 May)

Event Time Altitude Azimuth Distance (km) Brightness Sun altitude
Rises 23:21:06 0° 348° (NNW) 2,700 10.7 -14.8°
Reaches altitude 10° 23:23:53 10° 6° (N) 1,776 9.5 -15.5°
Enters shadow 23:26:42 19° 51° (NE) 1,285 8.3 -16.2°
Maximum altitude 23:26:46 19° 52° (NE) 1,284 - -16.2°
Drops below altitude 10° 23:29:33 10° 98° (E) 1,713 - -16.9°
Sets 23:32:10 0° 117° (ESE) 2,570 - -17.5°
